Location: Fort Wayne
(41.1310°N, 85.1290°W)
Time: 04:13:38
(UTC-04:00)

Meteor 2-10 Rocket - Visible Passes

Search period start: 29 May 2015 00:00
Search period end: 08 June 2015 00:00
Orbit: 733 x 886 km, 81.2° (Epoch: 28 May)

Date Brightness Start Highest point End Pass type
(mag) Time Alt. Az. Time Alt. Az. Time Alt. Az.
29 May 4.7 05:31:21 10° N 05:36:19 49° ENE 05:41:30 10° SSE visible
30 May 5.3 05:07:20 10° N 05:12:01 35° ENE 05:16:54 10° SE visible
31 May 5.9 04:43:27 10° NNE 04:47:40 25° ENE 04:52:06 10° SE visible
01 Jun 6.3 04:19:46 10° NNE 04:23:15 18° ENE 04:27:00 10° ESE visible
02 Jun 6.4 03:56:29 10° NE 03:58:47 13° ENE 04:01:24 10° E visible
02 Jun 3.6 05:36:19 10° NNW 05:41:33 77° W 05:46:58 10° S visible
03 Jun 3.8 05:12:05 10° N 05:17:20 77° E 05:22:48 10° SSE visible
04 Jun 4.4 04:47:57 10° N 04:53:06 54° ENE 04:58:27 10° SSE visible
05 Jun 5.0 04:23:55 10° N 04:28:49 39° ENE 04:33:55 10° SE visible
06 Jun 5.5 03:59:59 10° NNE 04:04:28 28° ENE 04:09:11 10° SE visible
07 Jun 6.0 03:36:13 10° NNE 03:40:05 21° ENE 03:44:12 10° ESE visible
07 Jun 3.9 05:17:20 10° NNW 05:22:28 49° W 05:27:46 10° SSW visible
